Home > Weather > Brăila > Past weeks

Flag for Romania Weather for the Past 2 Weeks in Brăila, Romania

Now
45 °F

Light rain. Overcast.


Feels Like: 42 °F
Forecast: 35 / 47 °F
Wind: 6 mph from South

Location: Galati

Current Time: Feb 11, 2016 at 6:40:59 AM

Latest Report: Feb 11, 2016 at 6:00 AM


Visibility: 2 mi

Pressure: 29.50 "Hg

Humidity: 96%

Dew point: 44 °F

Location of BrăilaLocation

Historic Weather in Brăila — Graph

°F

Brăila Temperature Yesterday

Maximum temperature yesterday: 54 °F (at 4:00 PM)
Minimum temperature yesterday: 34 °F (at 6:00 AM)
Average temperature yesterday: 45 °F

High & Low Weather Summary for the Past Weeks

 TemperatureHumidityPressure
High56 °F (Feb 3, 4:00 PM)100% (Jan 30, 8:00 AM)30.44 "Hg (Jan 30, 8:00 AM)
Low26 °F (Jan 27, 7:00 AM)48% (Feb 6, 1:00 PM)29.44 "Hg (Feb 11, 2:00 AM)
Average40 °F82%30.11 "Hg
* Reported Jan 27 7:00 AM — Feb 11 5:00 AM, Brăila, Weather by CustomWeather, © 2016

Note: Actual official high and low records may vary slightly from our data, if they occured in-between our weather recording intervals... More about our weather records

Advertising

Brăila Weather History for the Previous 24 Hours

 ConditionsComfort  
Time TempWeatherWind HumidityBarometerVisibility
5:00 AM
Thu, Feb 11
47 °FLight rain. Overcast.5 mph95%29.47 "Hg2 mi
4:00 AM47 °FLight rain. Overcast.3 mph93%29.44 "Hg6 mi
3:00 AM48 °FLight rain. Overcast.3 mph91%29.44 "Hg6 mi
2:00 AM49 °FOvercast.5 mph85%29.44 "Hg6 mi
12:00 AM49 °FOvercast.5 mph84%29.47 "Hg6 mi
11:00 PM
Wed, Feb 10
49 °FOvercast.6 mph83%29.50 "Hg6 mi
10:00 PM49 °FOvercast.6 mph82%29.50 "Hg6 mi
9:00 PM49 °FPassing clouds.5 mph84%29.53 "Hg6 mi
8:00 PM49 °FOvercast.6 mph82%29.55 "Hg6 mi
7:00 PM50 °FOvercast.5 mph81%29.57 "Hg6 mi
6:00 PM51 °FOvercast.6 mph80%29.57 "Hg12 mi
5:00 PM53 °FOvercast.6 mph79%29.59 "Hg12 mi
4:00 PM54 °FOvercast.3 mph74%29.60 "Hg12 mi
3:00 PM53 °FOvercast.5 mph77%29.62 "Hg12 mi
2:00 PM52 °FOvercast.6 mph77%29.65 "Hg12 mi
1:00 PM51 °FOvercast.6 mph76%29.69 "Hg12 mi
12:00 PM51 °FOvercast.6 mph73%29.72 "Hg12 mi
11:00 AM49 °FPartly sunny.6 mph74%29.74 "Hg6 mi
10:00 AM42 °FFog.2 mph84%29.77 "Hg2 mi
9:00 AM38 °FFog.2 mph93%29.79 "Hg1 mi
8:00 AM35 °FFog.2 mph98%29.81 "Hg1 mi
7:00 AM35 °FFog.2 mph99%29.83 "Hg1 mi
6:00 AM34 °FFog.3 mph98%29.85 "Hg2 mi
Weather by CustomWeather, © 2016

See weather overviewHow to use our weather pages